Погода Петропавловск-Камч.

Хотите узнать прогноз погоды Петропавловск-Камч.? Тогда Вам сюда: Погода Петропавловск-Камч.

Поиск расширенной информации на нашем сайте:

Полезная информация:

Новости сайта



14.11.2019
Обновлён Долгосрочный прогноз погоды по России и другим странам хСССР на ноябрь-декабрь 2019 года.
Опубликованы прогностические карты: Предварительный прогноз на декабрь 2019 года, Предварительный прогноз на январь 2020 года, Предварительная схема синоптических процессов на декабрь 2019 г..

11.11.2019
Обновлены Долгосрочный прогноз погоды по России и другим странам хСССР на ноябрь-декабрь 2019 года и Предварительный прогноз на зиму 2019/2020 годов

04.11.2019
Опубликован Долгосрочный прогноз погоды по России и другим странам хСССР на ноябрь 2019 года
Сравнение прогнозируемой аномалии приземной температуры воздуха на ноябрь 2019 года по разным моделям
Предварительный прогноз на зиму 2019/2020 года




Погода Петропавловск-Камч. - сегодня

Время (UTC), дата Ветер
(°,м/с) 
Видим.   Явления Облачность Т
(°С)
Тd
(°С)
f(%) Тe
(°С)
Pmin
(гПа)
dP
(гПа)
Po
(мм)
O2
(г/м3)
Тmin Tmax R s Состояние
почвы
00 18.11.19 350 (С) 6-11{13}  20000 м  {ливн. осадки}  9/8 600 м средняя, верхняя 
[Sc|Ac trans|Ci fib]
+0.6 -8.4 51 -3  995  1.9  744  300           
03 18.11.19 340 (С) 7-10{12}  20000 м    9/3 600 м средняя, верхняя 
[Sc|Ac trans|Ci fib]
+1.5 -6.1 57 -2  995.9  0.9  745  299           
06 18.11.19 310 (СЗ) 8-12{14}  20000 м    3/1 1000 м средняя 
[Sc|Ac trans]
+1.4 -6.6 55 -3  998.1  2.2  746  300           
09 18.11.19 010 (С) 20000 м    1/1 600 м 
[Sc]
-0.7 -10 49 -3  1000.4  2.3  748  303    +2.4       
12 18.11.19 360 (С) 6-10{10}  20000 м    4/4 600 м 
[Sc]
-1.5 -9.4 55 -5  1001.8  1.4  749  304           
15 18.11.19 010 (С) 5{12}  20000 м    4/4 600 м 
[Sc]
-2.9 -11.5 51 -6  1001.9  0.1  749  306           
18 18.11.19 010 (С) 20000 м    ясно 
-2.3 -11.3 50 -6  1002.8  0.9  750  306           
21 18.11.19 010 (С) 20000 м    1/0 верхняя 
[Ci fib]
-2.6 -12.8 45 -7  1003.8  0.9  751  306  -3.2      11  равномерный
сухой снег
100% 
00 19.11.19 330 (СЗ) 20000 м    1/0 верхняя 
[Ci fib]
-1.3 -8.8 57 -5  1002.8  -1  750  304           
03 19.11.19 320 (СЗ) 20000 м    ясно 
+0.7 -10.2 44 -2  1001.5  -1.3  749  302           
06 19.11.19 010 (С) 20000 м    8/0 средняя, верхняя 
[Ac trans|Ci fib]
-1.3 -7.4 63 -2  1000.7  -0.7  748  304           
09 19.11.19 тихо ()   20000 м    9/1 1000 м средняя, верхняя 
[Sc|Ac trans|Ci fib]
-3.8 -8.2 71 -4  997.8  -3  746  306    +0.7       
12 19.11.19 100 (В) 10 км  слаб. ливневой снег  10/10 600 м кучево-дожд. 
[Cb cap]
+1 -7.1 55 -1  994.9  -2.8  744  299           
15 19.11.19 070 (В) 6-12{14}  10 км  слаб. ливневой снег  10/8 600 м кучево-дожд., средняя 
[Cb cap|Ac und]
+2.2 -4.5 61 -1  990.6  -4.2  741  297           
18 19.11.19 040 (СВ) 4-12{15}  4000 м  слаб. ливневой снег  10/10 600 м кучево-дожд. 
[Cb cap]
+1.2 -2.4 77 -1  987.5  -3.2  738  296           
21 19.11.19 060 (СВ) 5-10{13}  2000 м  слаб. ливневой снег  10/10 600 м кучево-дожд. 
[Cb cap]
+1.7 -1.6 79 -1  985.6  -1.8  737  295  -3.8    13  равномерный
мокрый или
старый снег
100% 
00 20.11.19 070 (В) 5-13{15}  10 км  слаб. ливневой дождь со снегом  10/10 600 м кучево-дожд. 
[Cb cap]
+2.7 -2.9 67 983.7  -1.9  736  294           
03 20.11.19 060 (СВ) 4-16{16}  20000 м  слаб. ливневой дождь  10/8 600 м кучево-дожд., средняя 
[Cb cap|Ac trans]
+3.5 -3.7 59 +2  981.4  -2.3  734  292           
06 20.11.19 340 (С) 3{12}  20000 м  {ливн. осадки}  10/8 600 м средняя 
[Sc|Ac trans]
+3.7 -2.8 62 +2  980.6  -0.8  733  292           
09 20.11.19 050 (СВ) 3{10}  10 км  слаб. ливневой дождь со снегом  10/10 600 м кучево-дожд. 
[Cb cap]
+2.8 -1.6 73 +1  982.2  1.6  734  293    +4.1     
12 20.11.19 050 (СВ) 3-10{13}  20000 м  {ливн. осадки}  8/5 600 м средняя 
[Sc|Ac trans]
+3.6 -5.2 53 +2  983.8  1.7  736  293           
15 20.11.19 340 (С) 3{19}  20000 м    9/8 600 м средняя 
[Sc|Ac trans]
+2.3 -4.6 60 +1  985.6  1.7  737  295           
18 20.11.19 360 (С) 20000 м    9/4 600 м средняя, верхняя 
[Sc|Ac trans|Ci fib]
+2.5 -7.2 49 +2  987.6  738  296           
21 20.11.19 360 (С) 20000 м    10/10 600 м 
[Sc]
+1.7 -7.4 51 990.9  3.3  741  297  +1.7    0.2  равномерный
мокрый или
старый снег
100% 
00 21.11.19 360 (С) 20000 м    5/1 1000 м средняя, верхняя 
[Sc|Ac trans|Ci fib]
+2.3 -8.6 44 993.7  2.8  743  298  +1.3         
Время (UTC), дата Ветер
(°,м/с) 
Видим.   Явления Облачность Т
(°С)
Тd
(°С)
f(%) Тe
(°С)
Pmin
(гПа)
dP
(гПа)
Po
(мм)
O2
(г/м3)
Тmin Tmax R s Состояние
почвы

Для получения пояснительной информации подведите курсор к названию столбца.

ПОГОДА Петропавловск-Камч. - архив

Всё, что Вы хотите узнать о погоде Петропавловск-Камч. - удобно и подробно!

Выберите нужную дату (начиная с 1 января 2019* года) и нажмите кнопку "Найти".
Будут отображены архивные сводки погоды по пункту Петропавловск-Камч., начиная с указанной даты.


Отображать данные в формате CSV (для использования в таблицах Excel)


Внимание! Наш архив погоды предназначен исключительно для личного некоммерческого использования в познавательных целях. Если Вам необходимы официальные справки о состоянии погоды (для производственных, юридических, коммерческих и т.п. целей), обращайтесь в органы Росгидромета.

*Примечание: данная дата относится к архиву по метеостанциям СССР (Россия, СНГ, Балтия).
Архив по метеостанциям Зарубежной Европы и Азии (кроме Китая) хранится 10 дней, по другим регионам земного шара (Китай, Африка, Америка, Австралия, Океания) - 1 день.

Петропавловск-Камч. - район местоположения метеостанции


Название, широта, долгота, высота метеостанции:
Петропавловск-Камч. (обсерватория) 53°ш. 158.6°д. 24 м над ур. моря [Российская Федерация]

Дополнительная информация

В oтличие oт бoльшинства пoгoдных сайтoв мы публикуем пoдрoбную метеoинфoрмацию в детальнoм прoфессиoнальнoм фoрмате.

Характеристики температуры и влажнoсти вoздуха измеряются на высoте 2 м в тени вдали oт зданий и деревьев.
Скoрoсть ветра измеряется на высoте 10 м (на урoвне рoста челoвека скoрoсть ветра ниже в 1.5-2 раза). Если метеoстанция нахoдится в гoрoде или в лесу, тo скoрoсть ветра занижена на 2-4 м/с пo сравнению с oткрытым местoм. Скoрoсть ветра над акватoриями крупных рек и oзёр, а также на вершинах хoлмoв на 2-5 м/с выше, чем в oбычных услoвиях.
Атмoсфернoе давление в разных тoчках местнoсти мoжет значительнo oтличаться oт давления на метеoстанции, в зависимoсти oт услoвий рельефа (при пoдъёме на 10 м давление пoнижается примернo на 1 мм рт.ст.).